Location: Kaseke
(18.0171°S, 31.0526°E)
Time: 12:36:47
(UTC+00:00)

Cosmos 1980 Rocket - Pass Details

Date: 14 July 2020
Orbit: 828 x 851 km, 71.0° (Epoch: 07 August)

Event Time Altitude Azimuth Distance (km) Brightness Sun altitude
Rises 01:59:59 0° 354° (N) 3,380 5.4 -34.2°
Reaches altitude 10° 02:02:28 10° 358° (N) 2,448 4.7 -33.6°
Enters shadow 02:03:49 18° 2° (N) 1,956 4.2 -33.3°
Exits shadow 02:08:06 56° 82° (E) 990 2.7 -32.3°
Drops below altitude 10° 02:13:27 10° 152° (SSE) 2,456 4.7 -31.1°
Sets 02:15:56 0° 156° (SSE) 3,392 5.4 -30.5°
